| time (UTC) | temp F | wind direction | speed knots | gust knots | rain 1hr in | rain 24hr in | rain mn in | humidity % | barometer mb |
| 20260507170002 | 67 | 0.0 | 0.0 | 0.00 | 0.00 | 0.00 | 100 | 1019.5 | |
| 20260507165026 | 68 | 0.0 | 0.0 | 0.00 | 0.00 | 0.00 | 100 | 1019.2 | |
| 20260507164050 | 66 | 0.0 | 0.0 | 0.00 | 0.00 | 0.00 | 100 | 1019.7 | |
| 20260507163118 | 70 | 0.0 | 0.0 | 0.00 | 0.00 | 0.00 | 100 | 1019.2 | |
| 20260507162143 | 68 | 0.0 | 0.0 | 0.00 | 0.00 | 0.00 | 100 | 1019.5 | |
| 20260507161211 | 65 | 0.0 | 0.0 | 0.00 | 0.00 | 0.00 | 100 | 1020.1 | |
| 20260507160236 | 69 | 0.0 | 0.0 | 0.00 | 0.00 | 0.00 | 100 | 1019.5 | |
| 20260507155306 | 64 | 0.0 | 0.0 | 0.00 | 0.00 | 0.00 | 100 | 1019.9 | |
| 20260507154326 | 65 | 0.0 | 0.0 | 0.00 | 0.00 | 0.00 | 100 | 1020.0 | |
| 20260507153355 | 64 | 0.0 | 0.0 | 0.00 | 0.00 | 0.00 | 100 | 1020.1 | |
| 20260507152421 | 63 | 0.0 | 0.0 | 0.00 | 0.00 | 0.00 | 100 | 1020.0 | |
| 20260507151448 | 62 | 0.0 | 0.0 | 0.00 | 0.00 | 0.00 | 100 | 1020.1 | |
| 20260507150515 | 61 | 0.0 | 0.0 | 0.00 | 0.00 | 0.00 | 100 | 1019.9 | |
| 20260507145539 | 59 | 0.0 | 0.0 | 0.00 | 0.00 | 0.00 | 100 | 1020.3 | |
| 20260507144609 | 59 | 0.0 | 0.0 | 0.00 | 0.00 | 0.00 | 100 | 1020.3 | |
| 20260507143636 | 60 | 0.0 | 0.0 | 0.00 | 0.00 | 0.00 | 100 | 1020.2 | |
| 20260507142702 | 61 | 0.0 | 0.0 | 0.00 | 0.00 | 0.00 | 100 | 1020.1 | |
| 20260507141732 | 61 | 0.0 | 0.0 | 0.00 | 0.00 | 0.00 | 100 | 1019.0 | |
| 20260507140756 | 59 | 0.0 | 0.0 | 0.00 | 0.00 | 0.00 | 100 | 1019.5 | |
| 20260507135821 | 60 | 0.0 | 0.0 | 0.00 | 0.00 | 0.00 | 100 | 1019.5 | |
| 20260507134853 | 59 | 0.0 | 0.0 | 0.00 | 0.00 | 0.00 | 100 | 1019.5 | |
| 20260507133911 | 58 | 0.0 | 0.0 | 0.00 | 0.00 | 0.00 | 100 | 1019.4 | |
| 20260507132932 | 55 | 0.0 | 0.0 | 0.00 | 0.00 | 0.00 | 100 | 1019.5 | |
| 20260507132001 | 54 | 0.0 | 0.0 | 0.00 | 0.00 | 0.00 | 100 | 1019.6 | |
| 20260507131029 | 54 | 0.0 | 0.0 | 0.00 | 0.00 | 0.00 | 100 | 1019.9 | |
| 20260507130052 | 54 | 0.0 | 0.0 | 0.00 | 0.00 | 0.00 | 100 | 1020.0 | |
| 20260507125116 | 53 | 0.0 | 0.0 | 0.00 | 0.00 | 0.00 | 100 | 1020.5 | |
| 20260507124143 | 53 | 0.0 | 0.0 | 0.00 | 0.00 | 0.00 | 100 | 1020.3 | |
| 20260507123212 | 53 | 0.0 | 0.0 | 0.00 | 0.00 | 0.00 | 100 | 1020.2 | |
| 20260507122238 | 53 | 0.0 | 0.0 | 0.00 | 0.00 | 0.00 | 100 | 1020.1 | |
| 20260507121306 | 53 | 0.0 | 0.0 | 0.00 | 0.00 | 0.00 | 100 | 1020.4 | |
| 20260507120334 | 52 | 0.0 | 0.0 | 0.00 | 0.00 | 0.00 | 100 | 1020.4 | |
| 20260507114431 | 52 | 0.0 | 0.0 | 0.00 | 0.00 | 0.00 | 100 | 1021.2 | |
| 20260507113502 | 52 | 0.0 | 0.0 | 0.00 | 0.00 | 0.00 | 100 | 1022.0 | |
| 20260507112529 | 52 | 0.0 | 0.0 | 0.00 | 0.00 | 0.00 | 100 | 1022.1 | |
| 20260507111550 | 52 | 0.0 | 0.0 | 0.00 | 0.00 | 0.00 | 100 | 1022.2 | |
| 20260507110617 | 51 | 0.0 | 0.0 | 0.00 | 0.00 | 0.00 | 100 | 1022.1 | |
| 20260507105645 | 51 | 0.0 | 0.0 | 0.00 | 0.00 | 0.00 | 100 | 1022.6 | |
| 20260507104710 | 51 | 0.0 | 0.0 | 0.00 | 0.00 | 0.00 | 100 | 1022.4 | |
| 20260507103739 | 51 | 0.0 | 0.0 | 0.00 | 0.00 | 0.00 | 100 | 1022.3 | |
| 20260507102812 | 51 | 0.0 | 0.0 | 0.00 | 0.00 | 0.00 | 100 | 1022.2 | |
| 20260507101830 | 51 | 0.0 | 0.0 | 0.00 | 0.00 | 0.00 | 100 | 1022.2 | |
| 20260507100900 | 51 | 0.0 | 0.0 | 0.00 | 0.00 | 0.00 | 100 | 1022.2 | |
| 20260507095929 | 51 | 0.0 | 0.0 | 0.00 | 0.00 | 0.00 | 100 | 1022.1 | |
| 20260507094949 | 52 | 0.0 | 0.0 | 0.00 | 0.00 | 0.00 | 100 | 1022.1 | |
| 20260507094020 | 52 | 0.0 | 0.0 | 0.00 | 0.00 | 0.00 | 100 | 1022.3 | |
| 20260507093042 | 52 | 0.0 | 0.0 | 0.00 | 0.00 | 0.00 | 100 | 1022.7 | |
| 20260507092112 | 52 | 0.0 | 0.0 | 0.00 | 0.00 | 0.00 | 100 | 1023.2 | |
| 20260507091135 | 52 | 0.0 | 0.0 | 0.00 | 0.00 | 0.00 | 100 | 1023.7 | |
| 20260507090211 | 53 | 0.0 | 0.0 | 0.00 | 0.00 | 0.00 | 100 | 1024.0 | |
| 20260507085234 | 53 | 0.0 | 0.0 | 0.00 | 0.00 | 0.00 | 100 | 1024.1 | |
| 20260507084303 | 53 | 0.0 | 0.0 | 0.00 | 0.00 | 0.00 | 100 | 1024.1 | |
| 20260507083331 | 53 | 0.0 | 0.0 | 0.00 | 0.00 | 0.00 | 100 | 1023.8 | |
| 20260507082400 | 53 | 0.0 | 0.0 | 0.00 | 0.00 | 0.00 | 100 | 1023.7 | |
| 20260507081424 | 53 | 0.0 | 0.0 | 0.00 | 0.00 | 0.00 | 100 | 1023.5 | |
| 20260507080447 | 53 | 0.0 | 0.0 | 0.00 | 0.00 | 0.00 | 100 | 1023.3 | |
| 20260507075517 | 53 | 0.0 | 0.0 | 0.00 | 0.00 | 0.00 | 100 | 1023.1 | |
| 20260507074540 | 53 | 0.0 | 0.0 | 0.00 | 0.00 | 0.00 | 100 | 1022.7 | |
| 20260507073612 | 53 | 0.0 | 0.0 | 0.00 | 0.00 | 0.00 | 100 | 1022.4 | |
| 20260507072637 | 54 | 0.0 | 0.0 | 0.00 | 0.00 | 0.00 | 100 | 1022.3 | |
| 20260507071702 | 54 | 0.0 | 0.0 | 0.00 | 0.00 | 0.00 | 100 | 1022.3 | |
| 20260507070732 | 54 | 0.0 | 0.0 | 0.00 | 0.00 | 0.00 | 100 | 1022.3 | |
| 20260507065800 | 54 | 0.0 | 0.0 | 0.00 | 0.00 | 0.00 | 100 | 1022.5 | |
| 20260507064824 | 54 | 0.0 | 0.0 | 0.00 | 0.00 | 0.00 | 100 | 1022.5 | |
| 20260507063854 | 54 | 0.0 | 0.0 | 0.00 | 0.00 | 0.00 | 100 | 1022.6 | |
| 20260507062916 | 54 | 0.0 | 0.0 | 0.00 | 0.00 | 0.00 | 100 | 1022.5 | |
| 20260507061945 | 54 | 0.0 | 0.0 | 0.00 | 0.00 | 0.00 | 100 | 1022.5 | |
| 20260507061013 | 55 | 0.0 | 0.0 | 0.00 | 0.00 | 0.00 | 100 | 1022.7 | |
| 20260507060040 | 55 | 0.0 | 0.0 | 0.00 | 0.00 | 0.00 | 100 | 1022.7 | |
| 20260507055102 | 55 | 0.0 | 0.0 | 0.00 | 0.00 | 0.00 | 100 | 1022.6 | |
| 20260507054132 | 55 | 0.0 | 0.0 | 0.00 | 0.00 | 0.00 | 100 | 1022.3 | |
| 20260507053201 | 55 | 0.0 | 0.0 | 0.00 | 0.00 | 0.00 | 100 | 1022.2 | |
| 20260507052226 | 55 | 0.0 | 0.0 | 0.00 | 0.00 | 0.00 | 100 | 1021.8 | |
| 20260507051256 | 55 | 0.0 | 0.0 | 0.00 | 0.00 | 0.00 | 100 | 1021.5 | |
| 20260507045347 | 55 | 0.0 | 0.0 | 0.00 | 0.00 | 0.00 | 100 | 1021.1 | |
| 20260507044413 | 55 | 0.0 | 0.0 | 0.00 | 0.00 | 0.00 | 100 | 1021.0 | |
| 20260507043442 | 55 | 0.0 | 0.0 | 0.00 | 0.00 | 0.00 | 100 | 1020.3 | |
| 20260507042506 | 55 | 0.0 | 0.0 | 0.00 | 0.00 | 0.00 | 100 | 1020.0 | |
| 20260507041534 | 55 | 0.0 | 0.0 | 0.00 | 0.00 | 0.00 | 100 | 1020.0 | |
| 20260507040557 | 56 | 0.0 | 0.0 | 0.00 | 0.00 | 0.00 | 100 | 1020.3 | |
| 20260507035623 | 56 | 0.0 | 0.0 | 0.00 | 0.00 | 0.00 | 100 | 1020.4 | |
| 20260507034649 | 56 | 0.0 | 0.0 | 0.00 | 0.00 | 0.00 | 100 | 1020.7 | |
| 20260507033719 | 56 | 0.0 | 0.0 | 0.00 | 0.00 | 0.00 | 100 | 1020.2 | |
| 20260507032750 | 56 | 0.0 | 0.0 | 0.00 | 0.00 | 0.00 | 100 | 1020.3 | |
| 20260507031809 | 56 | 0.0 | 0.0 | 0.00 | 0.00 | 0.00 | 100 | 1019.9 | |
| 20260507030838 | 56 | 0.0 | 0.0 | 0.00 | 0.00 | 0.00 | 100 | 1018.5 | |
| 20260507025910 | 56 | 0.0 | 0.0 | 0.00 | 0.00 | 0.00 | 100 | 1018.0 | |
| 20260507024935 | 56 | 0.0 | 0.0 | 0.00 | 0.00 | 0.00 | 100 | 1017.8 | |
| 20260507024004 | 56 | 0.0 | 0.0 | 0.00 | 0.00 | 0.00 | 100 | 1017.7 | |
| 20260507023035 | 57 | 0.0 | 0.0 | 0.00 | 0.00 | 0.00 | 100 | 1017.2 | |
| 20260507022100 | 57 | 0.0 | 0.0 | 0.00 | 0.00 | 0.00 | 100 | 1017.0 | |
| 20260507021130 | 57 | 0.0 | 0.0 | 0.00 | 0.00 | 0.00 | 100 | 1017.2 | |
| 20260507020158 | 58 | 0.0 | 0.0 | 0.00 | 0.00 | 0.00 | 100 | 1017.5 | |
| 20260507015225 | 58 | 0.0 | 0.0 | 0.00 | 0.00 | 0.00 | 100 | 1017.6 | |
| 20260507014248 | 58 | 0.0 | 0.0 | 0.00 | 0.00 | 0.00 | 100 | 1017.7 | |
| 20260507013315 | 59 | 0.0 | 0.0 | 0.00 | 0.00 | 0.00 | 100 | 1017.7 | |
| 20260507012352 | 59 | 0.0 | 0.0 | 0.00 | 0.00 | 0.00 | 100 | 1017.7 | |
| 20260507011409 | 59 | 0.0 | 0.0 | 0.00 | 0.00 | 0.00 | 100 | 1017.5 | |
| 20260507010440 | 60 | 0.0 | 0.0 | 0.00 | 0.00 | 0.00 | 100 | 1017.9 | |
| 20260507005505 | 60 | 0.0 | 0.0 | 0.00 | 0.00 | 0.00 | 100 | 1017.7 | |
| 20260507004536 | 60 | 0.0 | 0.0 | 0.00 | 0.00 | 0.00 | 100 | 1017.1 | |
| 20260507003603 | 61 | 0.0 | 0.0 | 0.00 | 0.00 | 0.00 | 100 | 1016.9 | |
| 20260507002627 | 61 | 0.0 | 0.0 | 0.00 | 0.00 | 0.00 | 100 | 1016.9 | |
| 20260507001656 | 61 | 0.0 | 0.0 | 0.00 | 0.00 | 0.00 | 100 | 1016.7 | |
| 20260507000725 | 61 | 0.0 | 0.0 | 0.00 | 0.00 | 0.00 | 100 | 1016.2 | |
| 20260506235752 | 62 | 0.0 | 0.0 | 0.00 | 0.00 | 0.00 | 100 | 1015.5 | |
| 20260506234819 | 62 | 0.0 | 0.0 | 0.00 | 0.00 | 0.00 | 100 | 1014.9 | |
| 20260506233848 | 62 | 0.0 | 0.0 | 0.00 | 0.00 | 0.00 | 100 | 1014.4 | |
| 20260506232915 | 63 | 0.0 | 0.0 | 0.00 | 0.00 | 0.00 | 100 | 1014.2 | |
| 20260506231943 | 63 | 0.0 | 0.0 | 0.00 | 0.00 | 0.00 | 100 | 1013.8 | |
| 20260506231012 | 64 | 0.0 | 0.0 | 0.00 | 0.00 | 0.00 | 100 | 1013.2 | |
| 20260506230044 | 64 | 0.0 | 0.0 | 0.00 | 0.00 | 0.00 | 100 | 1013.0 | |
| 20260506225108 | 64 | 0.0 | 0.0 | 0.00 | 0.00 | 0.00 | 100 | 1013.0 | |
| 20260506224140 | 65 | 0.0 | 0.0 | 0.00 | 0.00 | 0.00 | 100 | 1012.8 | |
| 20260506223209 | 65 | 0.0 | 0.0 | 0.00 | 0.00 | 0.00 | 100 | 1013.0 | |
| 20260506222228 | 65 | 0.0 | 0.0 | 0.00 | 0.00 | 0.00 | 100 | 1013.0 | |
| 20260506221254 | 66 | 0.0 | 0.0 | 0.00 | 0.00 | 0.00 | 100 | 1012.8 | |
| 20260506220324 | 67 | 0.0 | 0.0 | 0.00 | 0.00 | 0.00 | 100 | 1012.9 | |
| 20260506215352 | 66 | 0.0 | 0.0 | 0.00 | 0.00 | 0.00 | 100 | 1013.9 | |
| 20260506214415 | 67 | 0.0 | 0.0 | 0.00 | 0.00 | 0.00 | 100 | 1016.5 | |
| 20260506213440 | 67 | 0.0 | 0.0 | 0.00 | 0.00 | 0.00 | 100 | 1017.2 | |
| 20260506212502 | 66 | 0.0 | 0.0 | 0.00 | 0.00 | 0.00 | 100 | 1016.2 | |
| 20260506211527 | 66 | 0.0 | 0.0 | 0.00 | 0.00 | 0.00 | 100 | 1014.7 | |
| 20260506210559 | 66 | 0.0 | 0.0 | 0.00 | 0.00 | 0.00 | 100 | 1013.3 | |
| 20260506205630 | 67 | 0.0 | 0.0 | 0.00 | 0.00 | 0.00 | 100 | 1012.4 | |
| 20260506204647 | 67 | 0.0 | 0.0 | 0.00 | 0.00 | 0.00 | 100 | 1011.9 | |
| 20260506203717 | 67 | 0.0 | 0.0 | 0.00 | 0.00 | 0.00 | 100 | 1011.7 | |
| 20260506202747 | 68 | 0.0 | 0.0 | 0.00 | 0.00 | 0.00 | 100 | 1011.6 | |
| 20260506201813 | 68 | 0.0 | 0.0 | 0.00 | 0.00 | 0.00 | 100 | 1011.6 | |
| 20260506200836 | 68 | 0.0 | 0.0 | 0.00 | 0.00 | 0.00 | 100 | 1011.5 | |
| 20260506195907 | 68 | 0.0 | 0.0 | 0.00 | 0.00 | 0.00 | 100 | 1011.7 | |
| 20260506194928 | 69 | 0.0 | 0.0 | 0.00 | 0.00 | 0.00 | 100 | 1011.8 | |
| 20260506193957 | 69 | 0.0 | 0.0 | 0.00 | 0.00 | 0.00 | 100 | 1012.1 | |
| 20260506193024 | 70 | 0.0 | 0.0 | 0.00 | 0.00 | 0.00 | 100 | 1012.1 | |
| 20260506192048 | 70 | 0.0 | 0.0 | 0.00 | 0.00 | 0.00 | 100 | 1012.2 | |
| 20260506191113 | 70 | 0.0 | 0.0 | 0.00 | 0.00 | 0.00 | 100 | 1012.4 | |
| 20260506190142 | 71 | 0.0 | 0.0 | 0.00 | 0.00 | 0.00 | 100 | 1012.7 | |
| 20260506185210 | 71 | 0.0 | 0.0 | 0.00 | 0.00 | 0.00 | 100 | 1011.9 | |
| 20260506183302 | 69 | 0.0 | 0.0 | 0.00 | 0.00 | 0.00 | 100 | 1012.2 | |
| 20260506182325 | 67 | 0.0 | 0.0 | 0.00 | 0.00 | 0.00 | 100 | 1012.5 | |
| 20260506181350 | 68 | 0.0 | 0.0 | 0.00 | 0.00 | 0.00 | 100 | 1012.3 | |
| 20260506180420 | 68 | 0.0 | 0.0 | 0.00 | 0.00 | 0.00 | 100 | 1012.7 | |
| 20260506175448 | 68 | 0.0 | 0.0 | 0.00 | 0.00 | 0.00 | 100 | 1013.1 | |
| 20260506174513 | 68 | 0.0 | 0.0 | 0.00 | 0.00 | 0.00 | 100 | 1013.4 | |
| 20260506173541 | 68 | 0.0 | 0.0 | 0.00 | 0.00 | 0.00 | 100 | 1014.6 | |
| 20260506172609 | 69 | 0.0 | 0.0 | 0.00 | 0.00 | 0.00 | 100 | 1015.0 | |
| 20260506171638 | 69 | 0.0 | 0.0 | 0.00 | 0.00 | 0.00 | 100 | 1015.1 | |
| 20260506170709 | 70 | 0.0 | 0.0 | 0.00 | 0.00 | 0.00 | 100 | 1015.4 |